Location: B�di�
(14.6834°N, 3.1047°W)
Time: 03:27:43
(UTC+00:00)

Ariane Rocket - Pass Details

Date: 24 January 2020
Orbit: 761 x 769 km, 98.7° (Epoch: 16 February)

Event Time Altitude Azimuth Distance (km) Brightness Sun altitude
Rises 20:18:56 0° 184° (S) 3,210 6.4 -31.4°
Reaches altitude 10° 20:21:22 10° 192° (SSW) 2,287 5.7 -32.0°
Maximum altitude 20:26:01 38° 259° (W) 1,154 4.3 -33.0°
Drops below altitude 10° 20:30:41 10° 327° (NNW) 2,293 5.6 -34.1°
Sets 20:33:08 0° 335° (NNW) 3,221 6.4 -34.7°
